Home   Weather   Dijon   Past weeks

Flag for France Past Weather in Dijon, Burgundy, France — Yesterday and Last 2 Weeks

Now
70 °F

Partly sunny.


Feels Like: 70 °F
Forecast: 60 / 71 °F
Wind: 12 mph from West

Location: Dole Tavaux

Current Time: Jul 23, 2017 at 12:52:20 pm

Latest Report: Jul 23, 2017 at 12:00 pm


Visibility: N/A

Pressure: 30.12 "Hg

Humidity: 57%

Dew Point: 54 °F

Location of DijonLocation

Past Weather in Dijon — Graph

°F

Dijon Temperature Yesterday

Maximum temperature yesterday: 82 °F (at 2:30 pm)
Minimum temperature yesterday: 59 °F (at 3:30 am)
Average temperature yesterday: 68 °F

High & Low Weather Summary for the Past Weeks

 TemperatureHumidityPressure
High93 °F (Jul 8, 2:30 pm)100% (Jul 9, 4:00 am)30.27 "Hg (Jul 9, 4:00 am)
Low55 °F (Jul 15, 6:00 am)25% (Jul 19, 3:00 pm)29.83 "Hg (Jul 10, 4:30 am)
Average71 °F69%30.02 "Hg
* Reported Jul 8 10:00 am — Jul 23 10:30 am, Dijon. Weather by CustomWeather, © 2017

Note: Actual official high and low records may vary slightly from our data, if they occured in-between our weather recording intervals... More about our weather records

Advertising

Dijon Weather History for the Previous 24 Hours

Scroll right to see more
 ConditionsComfort  
Time TempWeatherWind HumidityBarometerVisibility
10:30 am
Sun, Jul 23
66 °FMostly cloudy.10 mph68%30.12 "HgN/A
10:00 am66 °FBroken clouds.12 mph68%30.12 "HgN/A
9:30 am64 °FPassing clouds.9 mph73%30.12 "HgN/A
9:00 am63 °FSunny.9 mph77%30.12 "Hg10 mi
8:30 am63 °FSunny.7 mph83%30.12 "Hg10 mi
7:30 am61 °FSunny.2 mph88%30.09 "Hg10 mi
7:00 am61 °FClear.7 mph88%30.09 "Hg10 mi
6:30 am59 °FClear.5 mph94%30.09 "Hg10 mi
6:00 am61 °FClear.7 mph88%30.09 "Hg10 mi
5:30 am61 °FClear.7 mph88%30.09 "Hg10 mi
4:30 am61 °FOvercast.6 mph94%30.07 "HgN/A
3:30 am63 °FPassing clouds.8 mph88%30.07 "HgN/A
3:00 am66 °FOvercast.10 mph83%30.07 "HgN/A
2:30 am64 °FMostly cloudy.8 mph94%30.07 "HgN/A
2:00 am64 °FOvercast.7 mph94%30.04 "HgN/A
1:00 am64 °FMostly cloudy.3 mph94%30.04 "HgN/A
12:30 am63 °FThundershowers. Overcast.2 mph100%30.01 "HgN/A
12:00 am63 °FClear.3 mph100%30.01 "Hg10 mi
11:30 pm
Sat, Jul 22
63 °FClear.5 mph100%30.01 "Hg10 mi
10:30 pm63 °FPartly cloudy.7 mph94%30.01 "HgN/A
10:00 pm68 °FThunderstorms. Broken clouds.12 mph94%30.01 "HgN/A
9:30 pm68 °FThundershowers. Cloudy.8 mph94%29.98 "HgN/A
9:00 pm70 °FSunny.3 mph88%29.92 "Hg10 mi
8:30 pm70 °FSunny.5 mph88%29.92 "Hg10 mi
8:00 pm70 °FMild.5 mph94%29.92 "HgN/A
7:30 pm70 °FSunny.2 mph88%29.92 "Hg10 mi
7:00 pm70 °FOvercast.5 mph83%29.92 "HgN/A
6:30 pm70 °FLight rain. More clouds than sun.7 mph83%29.92 "HgN/A
6:00 pm70 °FLight rain. Mostly cloudy.7 mph88%29.95 "HgN/A
5:30 pm70 °FLight rain. Cloudy.7 mph83%29.92 "HgN/A
5:00 pm72 °FLight rain. Cloudy.3 mph78%29.95 "HgN/A
4:30 pm73 °FBroken clouds.12 mph74%29.95 "HgN/A
4:00 pm75 °FLight rain. Broken clouds.9 mph69%29.95 "HgN/A
3:30 pm79 °FWarm.10 mph51%29.95 "HgN/A
3:00 pm82 °FPassing clouds.9 mph42%29.95 "HgN/A
2:30 pm82 °FPassing clouds.10 mph42%29.95 "HgN/A
2:00 pm81 °FPartly sunny.8 mph48%29.95 "HgN/A
1:30 pm79 °FPartly sunny.6 mph51%29.95 "HgN/A
1:00 pm77 °FPartly sunny.6 mph57%29.95 "HgN/A
12:30 pm77 °FPartly sunny.5 mph57%29.98 "HgN/A
12:00 pm75 °FPassing clouds.6 mph61%29.98 "HgN/A
Weather by CustomWeather, © 2017

See weather overviewHow to use our weather pages